Regional Weather Roundup
Issued by NWS Upton, NY

Current Version | Previous Version | Graphics & Text | Print | Product List | Glossary Off
Versions: 1 2 3 4 5 6 7 8 9 10 11 12 13 14 15 16 17 18 19 20 21 22 23 24 25 26 27 28 29 30 31 32 33 34 35 36 37 38 39 40 41 42 43 44 45 46 47 48 49 50
000 ASUS41 KOKX 030005 RWROKX REGIONAL WEATHER ROUNDUP NATIONAL WEATHER SERVICE NEW YORK NY 700 PM EST MON MAR 02 2015 NOTE: "FAIR" INDICATES FEW OR NO CLOUDS BELOW 12,000 FEET WITH NO SIGNIFICANT WEATHER AND/OR OBSTRUCTIONS TO VISIBILITY. NYZ071-072-176-178-NJZ106-104-030100- NEW YORK CITY METRO AREA CITY SKY/WX TMP DP RH WIND PRES REMARKS CENTRAL PARK CLEAR 35 10 35 NW12G20 30.27R WCI 27 LAGUARDIA APRT CLEAR 35 12 38 NW20G29 30.25R WCI 24 KENNEDY INTL PTCLDY 36 10 34 NW16 30.25R WCI 26 NEWARK/LIBERTY PTCLDY 34 11 38 NW13G22 30.27R WCI 25 BRNX BOT. GARD N/A N/A N/A N/A NW5 30.25R TETERBORO CLEAR 33 10 38 NW13G20 30.25R WCI 24 $$ NYZ177-179-078>081-030100- LONG ISLAND NEW YORK CITY SKY/WX TMP DP RH WIND PRES REMARKS FARMINGDALE CLEAR 33 12 41 NW8G17 30.24R WCI 26 ISLIP CLEAR 32 13 45 NW15G22 30.20R WCI 22 SHIRLEY CLEAR 33 11 39 NW12G25 30.23R WCI 24 WESTHAMPTON CLEAR 31 14 49 NW10 30.22R WCI 22 MONTAUK POINT NOT AVBL $$ NYZ052-065-067-030100- HUDSON VALLEY CITY SKY/WX TMP DP RH WIND PRES REMARKS WHITE PLAINS CLEAR 30 10 43 NW21G26 30.20R WCI 17 NEWBURGH CLEAR 28 12 50 NW22G36 30.24R WCI 15 MONTGOMERY CLEAR 29 8 41 NW15G25 30.25R WCI 18 POUGHKEEPSIE CLEAR 30 8 39 NW13 30.25R WCI 20 ALBANY PTCLDY 26 11 52 NW17G28 30.28R WCI 13 $$ NJZ001-105-106-008-010-013-015-019>022-104-030100- NEW JERSEY CITY SKY/WX TMP DP RH WIND PRES REMARKS NEWARK/LIBERTY PTCLDY 34 11 38 NW13G22 30.27R WCI 25 TETERBORO CLEAR 33 10 38 NW13G20 30.25R WCI 24 CALDWELL CLEAR 32 9 38 NW10 30.26R WCI 24 MORRISTOWN CLEAR 34 7 32 NW12G21 30.27 WCI 25 SOMERVILLE CLEAR 35 8 32 NW8 30.26R WCI 29 SUSSEX CLEAR 30 7 37 VRB3 30.27R ANDOVER N/A 30 7 37 VRB5G17 30.26R WCI 25 TRENTON CLEAR 34 12 40 NW8 30.27R WCI 27 MILLVILLE CLEAR 34 16 47 W9 30.32R WCI 27 ATLANTIC CITY CLEAR 34 16 47 W9 30.30R WCI 27 WRIGHTSTOWN CLEAR 34 14 44 W9 30.26R WCI 26 TOMS RIVER CLEAR 34 16 47 W10 30.28R WCI 26 BELMAR FAIR 36 12 38 NW6 30.25R WCI 31 $$ PAZ047>061-062-071-030100- EASTERN PENNSYLVANIA CITY SKY/WX TMP DP RH WIND PRES REMARKS PHILADELPHIA PTCLDY 36 13 38 W13 30.33R WCI 27 ALLENTOWN CLEAR 33 8 35 NW10 30.28R WCI 25 SCRANTON CLEAR 28 7 41 NW8G22 30.27R WCI 20 $$ CTZ002-004>006-009-010-012-RIZ004-006-007-MAZ004-011-015-030100- SOUTHERN NEW ENGLAND IN CT CITY SKY/WX TMP DP RH WIND PRES REMARKS BRADLEY INTL PTCLDY 30 10 43 NW16G35 30.20R WCI 19 HARTFORD MOCLDY 30 10 43 NW16G24 30.22R WCI 19 DANBURY CLEAR 29 6 38 NW9 30.22R WCI 20 WTRBRY/OXFORD CLEAR 28 7 40 NW12 30.18R WCI 18 BRIDGEPORT CLEAR 30 12 47 NW9 30.22R WCI 22 MERIDEN CLEAR 30 10 43 NW10 30.21R WCI 21 NEW HAVEN CLEAR 32 11 41 NW12 30.21R WCI 23 CHESTER FAIR 32 10 40 NW8G17 30.17R WCI 25 GROTON CLEAR 30 11 45 NW16G29 30.18R WCI 19 WILLIMANTIC MIX PCPN 29 10 45 NW14G30 30.17R WCI 18 IN RI CITY SKY/WX TMP DP RH WIND PRES REMARKS PROVIDENCE PTCLDY 30 9 41 NW14G31 30.15R WCI 19 BLOCK ISLAND CLEAR 32 12 43 NW9 30.15R WCI 24 WESTERLY CLEAR 31 9 39 NW15G28 30.17R WCI 20 IN MA CITY SKY/WX TMP DP RH WIND PRES REMARKS BOSTON LGT SNOW 30 18 60 W20G35 30.12R WCI 17 WORCESTER CLEAR 24 9 52 NW23G32 30.08R WCI 9 WESTFIELD CLOUDY 29 13 51 NW16G24 30.20R WCI 17 PROVINCETOWN CLEAR 32 18 55 NW25G37 30.09R WCI 19 NANTUCKET CLEAR 31 15 52 W17G28 30.11R WCI 19 $$ ANZ330-335-338-340-345-350-353-355-030100- COASTAL MARINE OBSERVATIONS STATION/POSITION TIME SKY/WX TEMP WIND PRES VSBY WAVE AIR SEA DIR/SP/G HT/PER (UTC) (F) (DEG/KT/KT) (MB) (MI) (FT/S) NY HARB ENTRANCE 0000 38 38 310/ 23/ 27 1023.8 4/ 4 4S FIRE IS 0000 32 N/A 3/ 8 20S FIRE ISLAND 2300 37 1022.8 4/ 9 23SW MTP 0000 N/A 5/ 8 HUDSON CANYON NOT AVBL EXECUTION ROCKS NOT AVBL WESTERN LI SOUND NOT AVBL CENTRAL LI SOUND NOT AVBL EASTERN LI SOUND NOT AVBL ROBBINS REEF 2300 35 310/ 20/ 25 N/A $$ >>>>>>>>>>>>>>>>>>>>>>>>>>>> KEY <<<<<<<<<<<<<<<<<<<<<<<<<<< > < > SKY/WX - SKY CONDITION/PRESENT WEATHER < > TMP - TEMPERATURE IN FAHRENHEIT < > DP - DEWPOINT IN FAHRENHEIT < > RH - RELATIVE HUMIDITY IN PERCENT < > WIND - DIRECTION AND SPEED IN MPH < > PRES - MEAN SEA LEVEL PRESSURE IN INCHES OF HG < > WCI - WIND CHILL INDEX < > VSB - VISIBILITY IN MILES < > HX - HEAT INDEX < > TC - TEMPERATURE IN CELSIUS < > VRB - VARIABLE WIND DIRECTION < > < >>>>>>>>>>>>>>>>>>>>>>>>>>>> KEY <<<<<<<<<<<<<<<<<<<<<<<<<<<

USA.gov is the U.S. government's official web portal to all federal, state and local government web resources and services.